Hourly Weather Roundup
Issued by NWS

Home | Current Version | Previous Version | Text Only | Print | Product List | Glossary On
Versions: 1 2 3 4 5 6 7 8 9 10 11 12 13 14 15 16 17 18 19 20 21 22 23 24 25 26 27 28 29 30 31 32 33 34 35 36 37 38 39 40 41 42 43 44 45 46 47 48 49 50
515
NZUS43 KILX 131310
HWRCRS

CRS HOURLY WEATHER ROUNDUP
NATIONAL WEATHER SERVICE, LINCOLN IL
700 AM CST SAT FEB 13 2016


CITY           SKY/WX    TMP DP  RH WIND       PRES   REMARKS
CHAMPAIGN      CLOUDY     4  -5  66 N8        30.59R WCI  -9
LAWRENCEVILLE  CLEAR     11   0  61 N9        30.62R WCI  -2
PEORIA         CLOUDY     5  -7  57 N3        30.64R
SPRINGFIELD    PTCLDY     7  -2  66 N7        30.64R WCI  -5
$$


CITY           SKY/WX    TMP DP  RH WIND       PRES   REMARKS
BLOOMINGTON    CLOUDY     3  -6  66 NW6       30.60R WCI  -8
DECATUR        PTCLDY     6  -5  60 N9        30.61R WCI  -8
EFFINGHAM      CLEAR     10  -1  60 N7        30.63R WCI  -1
FLORA          CLEAR     12   4  69 NW7       30.63R WCI   2
GALESBURG      CLOUDY     3  -3  75 NW5       30.62S WCI  -6
JACKSONVILLE   CLOUDY     8   0  69 CALM      30.64S
LACON          CLOUDY     4  -8  58 NW5       30.63R WCI  -6
LINCOLN        CLOUDY     6  -3  66 N3        30.64R
LITCHFIELD     CLOUDY     8  -1  66 N10       30.64R WCI  -6

CITY           SKY/WX    TMP DP  RH WIND       PRES   REMARKS
MACOMB         CLOUDY     5  -2  71 N6        30.66R WCI  -5
MATTOON        CLOUDY     6  -3  66 N10       30.59R WCI  -9
MOLINE         CLOUDY     5  -6  60 NW9       30.64R WCI  -9
OLNEY          CLEAR     10   1  67 N6        30.63R WCI   1
PARIS          CLEAR      5  -3  69 NW5       30.60R WCI  -4
PONTIAC        CLOUDY     5  -4  66 NW7       30.61R WCI  -7
QUINCY         CLOUDY     5  -3  69 NW7       30.64R WCI  -7
RANTOUL        CLOUDY     6  -4  63 N6        30.59R WCI  -5
ROBINSON       CLEAR      9  -2  61 N8        30.63R WCI  -4
TAYLORVILLE    CLOUDY     9   0  66 N7        30.63R WCI  -3
TERRE HAUTE    CLEAR      8  -5  55 NW7       30.59R WCI  -3
$$


CITY           SKY/WX    TMP DP  RH WIND       PRES   REMARKS
BURLINGTON     CLOUDY     5  -2  72 NW5       30.64R WCI  -4
CHICAGO        PTCLDY     2 -10  57 NW12      30.56R WCI -15
DES MOINES     CLOUDY     4  -5  66 CALM      30.63S
EVANSVILLE     CLEAR     15   2  56 N6        30.61R WCI   6
INDIANAPOLIS   PTCLDY     7  -4  60 NW10      30.52R WCI  -8
KANSAS CITY    CLOUDY    16   4  59 E10       30.60S WCI   4
MILWAUKEE      PTCLDY     0 -13  54 NW12      30.54R WCI -17
ST LOUIS       PTCLDY    12   1  61 N8        30.65R WCI   0
$$





USA.gov is the U.S. government's official web portal to all federal, state and local government web resources and services.